Year,Month,Day,Hour,Minute,Value (Times are PST for temperature in C)
2015,07,15,00,00,19.60
2015,07,15,00,01,19.60
2015,07,15,00,02,19.60
2015,07,15,00,03,19.60
2015,07,15,00,04,19.60
2015,07,15,00,05,19.60
2015,07,15,00,06,19.60
2015,07,15,00,07,19.60
2015,07,15,00,08,19.60
2015,07,15,00,09,19.60
2015,07,15,00,10,19.60
2015,07,15,00,11,19.60
2015,07,15,00,12,19.60
2015,07,15,00,13,19.70
2015,07,15,00,14,19.70
2015,07,15,00,15,19.70
2015,07,15,00,16,19.70
2015,07,15,00,17,19.70
2015,07,15,00,18,19.70
2015,07,15,00,19,19.70
2015,07,15,00,20,19.70
2015,07,15,00,21,19.70
2015,07,15,00,22,19.70
2015,07,15,00,23,19.70
2015,07,15,00,24,19.70
2015,07,15,00,25,19.80
2015,07,15,00,26,19.80
2015,07,15,00,27,19.80
2015,07,15,00,28,19.80
2015,07,15,00,29,19.90
2015,07,15,00,30,19.90
2015,07,15,00,31,19.90
2015,07,15,00,32,20.00
2015,07,15,00,33,20.00
2015,07,15,00,34,20.00
2015,07,15,00,35,20.10
2015,07,15,00,36,20.10
2015,07,15,00,37,20.10
2015,07,15,00,38,20.10
2015,07,15,00,39,20.20
2015,07,15,00,40,20.20
2015,07,15,00,41,20.20
2015,07,15,00,42,20.20
2015,07,15,00,43,20.20
2015,07,15,00,44,20.20
2015,07,15,00,45,20.20
2015,07,15,00,46,20.20
2015,07,15,00,47,20.20
2015,07,15,00,48,20.20
2015,07,15,00,49,20.20
2015,07,15,00,50,20.20
2015,07,15,00,51,20.20
2015,07,15,00,52,20.20
2015,07,15,00,53,20.20
2015,07,15,00,54,20.20
2015,07,15,00,55,20.20
2015,07,15,00,56,20.20
2015,07,15,00,57,20.20
2015,07,15,00,58,20.20
2015,07,15,00,59,20.20
2015,07,15,01,00,20.20
2015,07,15,01,01,20.20
2015,07,15,01,02,20.20
2015,07,15,01,03,20.20
2015,07,15,01,04,20.20
2015,07,15,01,05,20.20
2015,07,15,01,06,20.20
2015,07,15,01,07,20.10
2015,07,15,01,08,20.10
2015,07,15,01,09,20.10
2015,07,15,01,10,20.10
2015,07,15,01,11,20.10
2015,07,15,01,12,20.00
2015,07,15,01,13,20.00
2015,07,15,01,14,20.00
2015,07,15,01,15,19.90
2015,07,15,01,16,19.90
2015,07,15,01,17,19.90
2015,07,15,01,18,19.90
2015,07,15,01,19,19.90
2015,07,15,01,20,19.90
2015,07,15,01,21,19.90
2015,07,15,01,22,19.80
2015,07,15,01,23,19.80
2015,07,15,01,24,19.80
2015,07,15,01,25,19.80
2015,07,15,01,26,19.80
2015,07,15,01,27,19.80
2015,07,15,01,28,19.80
2015,07,15,01,29,19.80
2015,07,15,01,30,19.80
2015,07,15,01,31,19.80
2015,07,15,01,32,19.80
2015,07,15,01,33,19.80
2015,07,15,01,34,19.80
2015,07,15,01,35,19.80
2015,07,15,01,36,19.80
2015,07,15,01,37,19.80
2015,07,15,01,38,19.80
2015,07,15,01,39,19.80
2015,07,15,01,40,19.80
2015,07,15,01,41,19.80
2015,07,15,01,42,19.80
2015,07,15,01,43,19.80
2015,07,15,01,44,19.80
2015,07,15,01,45,19.80
2015,07,15,01,46,19.80
2015,07,15,01,47,19.80
2015,07,15,01,48,19.80
2015,07,15,01,49,19.80
2015,07,15,01,50,19.80
2015,07,15,01,51,19.80
2015,07,15,01,52,19.70
2015,07,15,01,53,19.70
2015,07,15,01,54,19.70
2015,07,15,01,55,19.70
2015,07,15,01,56,19.70
2015,07,15,01,57,19.70
2015,07,15,01,58,19.70
2015,07,15,01,59,19.70
2015,07,15,02,00,19.70
2015,07,15,02,01,19.70
2015,07,15,02,02,19.70
2015,07,15,02,03,19.70
2015,07,15,02,04,19.70
2015,07,15,02,05,19.70
2015,07,15,02,06,19.70
2015,07,15,02,07,19.60
2015,07,15,02,08,19.60
2015,07,15,02,09,19.60
2015,07,15,02,10,19.60
2015,07,15,02,11,19.60
2015,07,15,02,12,19.60
2015,07,15,02,13,19.60
2015,07,15,02,14,19.60
2015,07,15,02,15,19.50
2015,07,15,02,16,19.50
2015,07,15,02,17,19.50
2015,07,15,02,18,19.50
2015,07,15,02,19,19.50
2015,07,15,02,20,19.50
2015,07,15,02,21,19.50
2015,07,15,02,22,19.50
2015,07,15,02,23,19.50
2015,07,15,02,24,19.50
2015,07,15,02,25,19.50
2015,07,15,02,26,19.50
2015,07,15,02,27,19.50
2015,07,15,02,28,19.40
2015,07,15,02,29,19.40
2015,07,15,02,30,19.40
2015,07,15,02,31,19.30
2015,07,15,02,32,19.30
2015,07,15,02,33,19.30
2015,07,15,02,34,19.30
2015,07,15,02,35,19.30
2015,07,15,02,36,19.20
2015,07,15,02,37,19.20
2015,07,15,02,38,19.20
2015,07,15,02,39,19.20
2015,07,15,02,40,19.20
2015,07,15,02,41,19.30
2015,07,15,02,42,19.30
2015,07,15,02,43,19.30
2015,07,15,02,44,19.30
2015,07,15,02,45,19.30
2015,07,15,02,46,19.30
2015,07,15,02,47,19.30
2015,07,15,02,48,19.20
2015,07,15,02,49,19.20
2015,07,15,02,50,19.20
2015,07,15,02,51,19.10
2015,07,15,02,52,19.10
2015,07,15,02,53,19.00
2015,07,15,02,54,19.00
2015,07,15,02,55,19.00
2015,07,15,02,56,18.90
2015,07,15,02,57,18.90
2015,07,15,02,58,18.80
2015,07,15,02,59,18.70
2015,07,15,03,00,18.70
2015,07,15,03,01,18.60
2015,07,15,03,02,18.50
2015,07,15,03,03,18.50
2015,07,15,03,04,18.40
2015,07,15,03,05,18.40
2015,07,15,03,06,18.30
2015,07,15,03,07,18.30
2015,07,15,03,08,18.30
2015,07,15,03,09,18.20
2015,07,15,03,10,18.20
2015,07,15,03,11,18.20
2015,07,15,03,12,18.10
2015,07,15,03,13,18.10
2015,07,15,03,14,18.00
2015,07,15,03,15,18.00
2015,07,15,03,16,17.90
2015,07,15,03,17,17.90
2015,07,15,03,18,17.90
2015,07,15,03,19,17.90
2015,07,15,03,20,17.90
2015,07,15,03,21,17.90
2015,07,15,03,22,17.80
2015,07,15,03,23,17.70
2015,07,15,03,24,17.70
2015,07,15,03,25,17.60
2015,07,15,03,26,17.50
2015,07,15,03,27,17.50
2015,07,15,03,28,17.40
2015,07,15,03,29,17.40
2015,07,15,03,30,17.30
2015,07,15,03,31,17.30
2015,07,15,03,32,17.30
2015,07,15,03,33,17.30
2015,07,15,03,34,17.30
2015,07,15,03,35,17.40
2015,07,15,03,36,17.40
2015,07,15,03,37,17.50
2015,07,15,03,38,17.50
2015,07,15,03,39,17.60
2015,07,15,03,40,17.70
2015,07,15,03,41,17.70
2015,07,15,03,42,17.80
2015,07,15,03,43,17.80
2015,07,15,03,44,17.80
2015,07,15,03,45,17.80
2015,07,15,03,46,17.80
2015,07,15,03,47,17.90
2015,07,15,03,48,17.90
2015,07,15,03,49,17.90
2015,07,15,03,50,17.90
2015,07,15,03,51,17.90
2015,07,15,03,52,17.90
2015,07,15,03,53,17.90
2015,07,15,03,54,17.90
2015,07,15,03,55,17.90
2015,07,15,03,56,17.90
2015,07,15,03,57,17.90
2015,07,15,03,58,17.90
2015,07,15,03,59,17.90
2015,07,15,04,00,17.90
2015,07,15,04,01,17.90
2015,07,15,04,02,18.00
2015,07,15,04,03,18.00
2015,07,15,04,04,18.00
2015,07,15,04,05,18.00
2015,07,15,04,06,18.00
2015,07,15,04,07,18.00
2015,07,15,04,08,18.00
2015,07,15,04,09,18.00
2015,07,15,04,10,17.90
2015,07,15,04,11,17.90
2015,07,15,04,12,17.90
2015,07,15,04,13,17.80
2015,07,15,04,14,17.80
2015,07,15,04,15,17.80
2015,07,15,04,16,17.80
2015,07,15,04,17,17.80
2015,07,15,04,18,17.70
2015,07,15,04,19,17.70
2015,07,15,04,20,17.70
2015,07,15,04,21,17.70
2015,07,15,04,22,17.70
2015,07,15,04,23,17.70
2015,07,15,04,24,17.80
2015,07,15,04,25,17.80
2015,07,15,04,26,17.80
2015,07,15,04,27,17.80
2015,07,15,04,28,17.80
2015,07,15,04,29,17.80
2015,07,15,04,30,17.90
2015,07,15,04,31,17.90
2015,07,15,04,32,17.90
2015,07,15,04,33,17.90
2015,07,15,04,34,18.00
2015,07,15,04,35,18.00
2015,07,15,04,36,18.00
2015,07,15,04,37,17.90
2015,07,15,04,38,17.90
2015,07,15,04,39,17.80
2015,07,15,04,40,17.80
2015,07,15,04,41,17.80
2015,07,15,04,42,17.80
2015,07,15,04,43,17.80
2015,07,15,04,44,17.80
2015,07,15,04,45,17.80
2015,07,15,04,46,17.80
2015,07,15,04,47,17.80
2015,07,15,04,48,17.70
2015,07,15,04,49,17.70
2015,07,15,04,50,17.70
2015,07,15,04,51,17.60
2015,07,15,04,52,17.60
2015,07,15,04,53,17.50
2015,07,15,04,54,17.50
2015,07,15,04,55,17.40
2015,07,15,04,56,17.40
2015,07,15,04,57,17.40
2015,07,15,04,58,17.30
2015,07,15,04,59,17.30
2015,07,15,05,00,17.20
2015,07,15,05,01,17.20
2015,07,15,05,02,17.10
2015,07,15,05,03,17.10
2015,07,15,05,04,17.00
2015,07,15,05,05,16.90
2015,07,15,05,06,16.90
2015,07,15,05,07,16.90
2015,07,15,05,08,16.90
2015,07,15,05,09,16.90
2015,07,15,05,10,16.90
2015,07,15,05,11,16.90
2015,07,15,05,12,16.80
2015,07,15,05,13,16.80
2015,07,15,05,14,16.80
2015,07,15,05,15,16.70
2015,07,15,05,16,16.70
2015,07,15,05,17,16.70
2015,07,15,05,18,16.60
2015,07,15,05,19,16.60
2015,07,15,05,20,16.50
2015,07,15,05,21,16.50
2015,07,15,05,22,16.40
2015,07,15,05,23,16.40
2015,07,15,05,24,16.30
2015,07,15,05,25,16.30
2015,07,15,05,26,16.30
2015,07,15,05,27,16.30
2015,07,15,05,28,16.30
2015,07,15,05,29,16.20
2015,07,15,05,30,16.20
2015,07,15,05,31,16.20
2015,07,15,05,32,16.30
2015,07,15,05,33,16.30
2015,07,15,05,34,16.30
2015,07,15,05,35,16.30
2015,07,15,05,36,16.30
2015,07,15,05,37,16.30
2015,07,15,05,38,16.30
2015,07,15,05,39,16.40
2015,07,15,05,40,16.40
2015,07,15,05,41,16.50
2015,07,15,05,42,16.50
2015,07,15,05,43,16.60
2015,07,15,05,44,16.60
2015,07,15,05,45,16.70
2015,07,15,05,46,16.70
2015,07,15,05,47,16.70
2015,07,15,05,48,16.70
2015,07,15,05,49,16.70
2015,07,15,05,50,16.70
2015,07,15,05,51,16.70
2015,07,15,05,52,16.70
2015,07,15,05,53,16.70
2015,07,15,05,54,16.70
2015,07,15,05,55,16.70
2015,07,15,05,56,16.70
2015,07,15,05,57,16.80
2015,07,15,05,58,16.80
2015,07,15,05,59,16.80
2015,07,15,06,00,16.80
2015,07,15,06,01,16.80
2015,07,15,06,02,16.80
2015,07,15,06,03,16.80
2015,07,15,06,04,16.90
2015,07,15,06,05,16.90
2015,07,15,06,06,16.90
2015,07,15,06,07,17.00
2015,07,15,06,08,17.10
2015,07,15,06,09,17.10
2015,07,15,06,10,17.10
2015,07,15,06,11,17.20
2015,07,15,06,12,17.20
2015,07,15,06,13,17.20
2015,07,15,06,14,17.30
2015,07,15,06,15,17.30
2015,07,15,06,16,17.30
2015,07,15,06,17,17.30
2015,07,15,06,18,17.30
2015,07,15,06,19,17.30
2015,07,15,06,20,17.30
2015,07,15,06,21,17.40
2015,07,15,06,22,17.40
2015,07,15,06,23,17.40
2015,07,15,06,24,17.40
2015,07,15,06,25,17.40
2015,07,15,06,26,17.40
2015,07,15,06,27,17.40
2015,07,15,06,28,17.40
2015,07,15,06,29,17.40
2015,07,15,06,30,17.40
2015,07,15,06,31,17.40
2015,07,15,06,32,17.40
2015,07,15,06,33,17.40
2015,07,15,06,34,17.40
2015,07,15,06,35,17.40
2015,07,15,06,36,17.40
2015,07,15,06,37,17.40
2015,07,15,06,38,17.40
2015,07,15,06,39,17.50
2015,07,15,06,40,17.50
2015,07,15,06,41,17.60
2015,07,15,06,42,17.60
2015,07,15,06,43,17.70
2015,07,15,06,44,17.70
2015,07,15,06,45,17.80
2015,07,15,06,46,17.90
2015,07,15,06,47,18.00
2015,07,15,06,48,18.10
2015,07,15,06,49,18.10
2015,07,15,06,50,18.20
2015,07,15,06,51,18.20
2015,07,15,06,52,18.20
2015,07,15,06,53,18.10
2015,07,15,06,54,18.10
2015,07,15,06,55,18.00
2015,07,15,06,56,17.90
2015,07,15,06,57,17.90
2015,07,15,06,58,17.90
2015,07,15,06,59,17.80
2015,07,15,07,00,17.80
2015,07,15,07,01,17.80
2015,07,15,07,02,17.80
2015,07,15,07,03,17.80
2015,07,15,07,04,17.80
2015,07,15,07,05,17.80
2015,07,15,07,06,17.80
2015,07,15,07,07,17.80
2015,07,15,07,08,17.80
2015,07,15,07,09,17.90
2015,07,15,07,10,17.90
2015,07,15,07,11,18.00
2015,07,15,07,12,18.00
2015,07,15,07,13,18.10
2015,07,15,07,14,18.10
2015,07,15,07,15,18.20
2015,07,15,07,16,18.20
2015,07,15,07,17,18.20
2015,07,15,07,18,18.20
2015,07,15,07,19,18.20
2015,07,15,07,20,18.20
2015,07,15,07,21,18.20
2015,07,15,07,22,18.20
2015,07,15,07,23,18.30
2015,07,15,07,24,18.30
2015,07,15,07,25,18.40
2015,07,15,07,26,18.40
2015,07,15,07,27,18.50
2015,07,15,07,28,18.60
2015,07,15,07,29,18.60
2015,07,15,07,30,18.70
2015,07,15,07,31,18.80
2015,07,15,07,32,18.90
2015,07,15,07,33,19.00
2015,07,15,07,34,19.00
2015,07,15,07,35,19.10
2015,07,15,07,36,19.10
2015,07,15,07,37,19.20
2015,07,15,07,38,19.20
2015,07,15,07,39,19.20
2015,07,15,07,40,19.30
2015,07,15,07,41,19.40
2015,07,15,07,42,19.40
2015,07,15,07,43,19.50
2015,07,15,07,44,19.60
2015,07,15,07,45,19.70
2015,07,15,07,46,19.70
2015,07,15,07,47,19.70
2015,07,15,07,48,19.60
2015,07,15,07,49,19.60
2015,07,15,07,50,19.50
2015,07,15,07,51,19.40
2015,07,15,07,52,19.40
2015,07,15,07,53,19.40
2015,07,15,07,54,19.40
2015,07,15,07,55,19.40
2015,07,15,07,56,19.50
2015,07,15,07,57,19.60
2015,07,15,07,58,19.60
2015,07,15,07,59,19.70
2015,07,15,08,00,19.70
2015,07,15,08,01,19.70
2015,07,15,08,02,19.80
2015,07,15,08,03,19.80
2015,07,15,08,04,19.80
2015,07,15,08,05,19.80
2015,07,15,08,06,19.90
2015,07,15,08,07,19.90
2015,07,15,08,08,19.90
2015,07,15,08,09,19.90
2015,07,15,08,10,19.90
2015,07,15,08,11,19.90
2015,07,15,08,12,19.90
2015,07,15,08,13,20.00
2015,07,15,08,14,20.00
2015,07,15,08,15,20.10
2015,07,15,08,16,20.10
2015,07,15,08,17,20.10
2015,07,15,08,18,20.20
2015,07,15,08,19,20.20
2015,07,15,08,20,20.20
2015,07,15,08,21,20.20
2015,07,15,08,22,20.30
2015,07,15,08,23,20.30
2015,07,15,08,24,20.30
2015,07,15,08,25,20.20
2015,07,15,08,26,20.20
2015,07,15,08,27,20.20
2015,07,15,08,28,20.20
2015,07,15,08,29,20.20
2015,07,15,08,30,20.10
2015,07,15,08,31,20.10
2015,07,15,08,32,20.10
2015,07,15,08,33,20.00
2015,07,15,08,34,20.00
2015,07,15,08,35,20.00
2015,07,15,08,36,19.90
2015,07,15,08,37,19.90
2015,07,15,08,38,19.90
2015,07,15,08,39,19.90
2015,07,15,08,40,20.00
2015,07,15,08,41,20.00
2015,07,15,08,42,20.00
2015,07,15,08,43,20.10
2015,07,15,08,44,20.10
2015,07,15,08,45,20.10
2015,07,15,08,46,20.10
2015,07,15,08,47,20.20
2015,07,15,08,48,20.20
2015,07,15,08,49,20.20
2015,07,15,08,50,20.20
2015,07,15,08,51,20.20
2015,07,15,08,52,20.20
2015,07,15,08,53,20.20
2015,07,15,08,54,20.20
2015,07,15,08,55,20.20
2015,07,15,08,56,20.20
2015,07,15,08,57,20.30
2015,07,15,08,58,20.30
2015,07,15,08,59,20.30
2015,07,15,09,00,20.30
2015,07,15,09,01,20.30
2015,07,15,09,02,20.30
2015,07,15,09,03,20.30
2015,07,15,09,04,20.30
2015,07,15,09,05,20.30
2015,07,15,09,06,20.30
2015,07,15,09,07,20.30
2015,07,15,09,08,20.30
2015,07,15,09,09,20.20
2015,07,15,09,10,20.20
2015,07,15,09,11,20.20
2015,07,15,09,12,20.20
2015,07,15,09,13,20.20
2015,07,15,09,14,20.20
2015,07,15,09,15,20.20
2015,07,15,09,16,20.20
2015,07,15,09,17,20.30
2015,07,15,09,18,20.30
2015,07,15,09,19,20.30
2015,07,15,09,20,20.30
2015,07,15,09,21,20.20
2015,07,15,09,22,20.20
2015,07,15,09,23,20.20
2015,07,15,09,24,20.20
2015,07,15,09,25,20.20
2015,07,15,09,26,20.20
2015,07,15,09,27,20.20
2015,07,15,09,28,20.30
2015,07,15,09,29,20.30
2015,07,15,09,30,20.30
2015,07,15,09,31,20.30
2015,07,15,09,32,20.30
2015,07,15,09,33,20.30
2015,07,15,09,34,20.30
2015,07,15,09,35,20.20
2015,07,15,09,36,20.20
2015,07,15,09,37,20.20
2015,07,15,09,38,20.30
2015,07,15,09,39,20.30
2015,07,15,09,40,20.40
2015,07,15,09,41,20.40
2015,07,15,09,42,20.50
2015,07,15,09,43,20.60
2015,07,15,09,44,20.70
2015,07,15,09,45,20.80
2015,07,15,09,46,20.80
2015,07,15,09,47,20.80
2015,07,15,09,48,20.80
2015,07,15,09,49,20.80
2015,07,15,09,50,20.70
2015,07,15,09,51,20.70
2015,07,15,09,52,20.60
2015,07,15,09,53,20.60
2015,07,15,09,54,20.60
2015,07,15,09,55,20.60
2015,07,15,09,56,20.60
2015,07,15,09,57,20.70
2015,07,15,09,58,20.80
2015,07,15,09,59,20.90
2015,07,15,10,00,21.00
2015,07,15,10,01,21.00
2015,07,15,10,02,21.10
2015,07,15,10,03,21.10
2015,07,15,10,04,21.10
2015,07,15,10,05,21.10
2015,07,15,10,06,21.10
2015,07,15,10,07,21.00
2015,07,15,10,08,21.00
2015,07,15,10,09,21.00
2015,07,15,10,10,21.10
2015,07,15,10,11,21.10
2015,07,15,10,12,21.10
2015,07,15,10,13,21.10
2015,07,15,10,14,21.20
2015,07,15,10,15,21.20
2015,07,15,10,16,21.30
2015,07,15,10,17,21.30
2015,07,15,10,18,21.40
2015,07,15,10,19,21.30
2015,07,15,10,20,21.20
2015,07,15,10,21,21.10
2015,07,15,10,22,21.10
2015,07,15,10,23,21.10
2015,07,15,10,24,21.10
2015,07,15,10,25,21.10
2015,07,15,10,26,21.10
2015,07,15,10,27,21.10
2015,07,15,10,28,21.20
2015,07,15,10,29,21.30
2015,07,15,10,30,21.40
2015,07,15,10,31,21.40
2015,07,15,10,32,21.40
2015,07,15,10,33,21.30
2015,07,15,10,34,21.30
2015,07,15,10,35,21.20
2015,07,15,10,36,21.20
2015,07,15,10,37,21.10
2015,07,15,10,38,21.20
2015,07,15,10,39,21.20
2015,07,15,10,40,21.30
2015,07,15,10,41,21.30
2015,07,15,10,42,21.40
2015,07,15,10,43,21.40
2015,07,15,10,44,21.30
2015,07,15,10,45,21.20
2015,07,15,10,46,21.20
2015,07,15,10,47,21.10
2015,07,15,10,48,21.10
2015,07,15,10,49,21.00
2015,07,15,10,50,21.00
2015,07,15,10,51,21.00
2015,07,15,10,52,21.00
2015,07,15,10,53,20.90
2015,07,15,10,54,20.80
2015,07,15,10,55,20.80
2015,07,15,10,56,20.80
2015,07,15,10,57,20.80
2015,07,15,10,58,20.80
2015,07,15,10,59,20.90
2015,07,15,11,00,20.90
2015,07,15,11,01,21.00
2015,07,15,11,02,21.10
2015,07,15,11,03,21.20
2015,07,15,11,04,21.30
2015,07,15,11,05,21.30
2015,07,15,11,06,21.20
2015,07,15,11,07,21.20
2015,07,15,11,08,21.20
2015,07,15,11,09,21.10
2015,07,15,11,10,21.00
2015,07,15,11,11,20.90
2015,07,15,11,12,20.80
2015,07,15,11,13,20.90
2015,07,15,11,14,20.90
2015,07,15,11,15,20.90
2015,07,15,11,16,20.90
2015,07,15,11,17,20.90
2015,07,15,11,18,21.00
2015,07,15,11,19,21.00
2015,07,15,11,20,20.90
2015,07,15,11,21,21.00
2015,07,15,11,22,21.00
2015,07,15,11,23,21.10
2015,07,15,11,24,21.10
2015,07,15,11,25,21.10
2015,07,15,11,26,21.10
2015,07,15,11,27,21.00
2015,07,15,11,28,21.00
2015,07,15,11,29,20.90
2015,07,15,11,30,20.80
2015,07,15,11,31,20.80
2015,07,15,11,32,20.80
2015,07,15,11,33,20.80
2015,07,15,11,34,20.80
2015,07,15,11,35,20.80
2015,07,15,11,36,20.80
2015,07,15,11,37,20.90
2015,07,15,11,38,20.90
2015,07,15,11,39,21.00
2015,07,15,11,40,21.10
2015,07,15,11,41,21.20
2015,07,15,11,42,21.20
2015,07,15,11,43,21.10
2015,07,15,11,44,21.10
2015,07,15,11,45,21.00
2015,07,15,11,46,20.90
2015,07,15,11,47,20.80
2015,07,15,11,48,20.80
2015,07,15,11,49,20.70
2015,07,15,11,50,20.80
2015,07,15,11,51,20.80
2015,07,15,11,52,20.80
2015,07,15,11,53,20.70
2015,07,15,11,54,20.70
2015,07,15,11,55,20.70
2015,07,15,11,56,20.60
2015,07,15,11,57,20.60
2015,07,15,11,58,20.60
2015,07,15,11,59,20.60
2015,07,15,12,00,20.70
2015,07,15,12,01,20.70
2015,07,15,12,02,20.80
2015,07,15,12,03,20.70
2015,07,15,12,04,20.70
2015,07,15,12,05,20.80
2015,07,15,12,06,20.80
2015,07,15,12,07,20.70
2015,07,15,12,08,20.60
2015,07,15,12,09,20.60
2015,07,15,12,10,20.70
2015,07,15,12,11,20.70
2015,07,15,12,12,20.70
2015,07,15,12,13,20.80
2015,07,15,12,14,20.70
2015,07,15,12,15,20.70
2015,07,15,12,16,20.70
2015,07,15,12,17,20.70
2015,07,15,12,18,20.80
2015,07,15,12,19,21.00
2015,07,15,12,20,21.10
2015,07,15,12,21,21.20
2015,07,15,12,22,21.30
2015,07,15,12,23,21.30
2015,07,15,12,24,21.40
2015,07,15,12,25,21.50
2015,07,15,12,26,21.60
2015,07,15,12,27,21.60
2015,07,15,12,28,21.60
2015,07,15,12,29,21.70
2015,07,15,12,30,21.70
2015,07,15,12,31,21.60
2015,07,15,12,32,21.50
2015,07,15,12,33,21.40
2015,07,15,12,34,21.20
2015,07,15,12,35,21.10
2015,07,15,12,36,20.90
2015,07,15,12,37,20.80
2015,07,15,12,38,20.70
2015,07,15,12,39,20.70
2015,07,15,12,40,20.70
2015,07,15,12,41,20.70
2015,07,15,12,42,20.80
2015,07,15,12,43,20.80
2015,07,15,12,44,21.00
2015,07,15,12,45,21.20
2015,07,15,12,46,21.30
2015,07,15,12,47,21.40
2015,07,15,12,48,21.50
2015,07,15,12,49,21.60
2015,07,15,12,50,21.50
2015,07,15,12,51,21.50
2015,07,15,12,52,21.40
2015,07,15,12,53,21.50
2015,07,15,12,54,21.50
2015,07,15,12,55,21.60
2015,07,15,12,56,21.60
2015,07,15,12,57,21.50
2015,07,15,12,58,21.50
2015,07,15,12,59,21.40
2015,07,15,13,00,21.40
2015,07,15,13,01,21.50
2015,07,15,13,02,21.50
2015,07,15,13,03,21.60
2015,07,15,13,04,21.60
2015,07,15,13,05,21.60
2015,07,15,13,06,21.80
2015,07,15,13,07,21.90
2015,07,15,13,08,22.00
2015,07,15,13,09,22.10
2015,07,15,13,10,22.10
2015,07,15,13,11,22.20
2015,07,15,13,12,22.30
2015,07,15,13,13,22.30
2015,07,15,13,14,22.20
2015,07,15,13,15,22.20
2015,07,15,13,16,22.20
2015,07,15,13,17,22.30
2015,07,15,13,18,22.30
2015,07,15,13,19,22.20
2015,07,15,13,20,22.10
2015,07,15,13,21,22.00
2015,07,15,13,22,21.90
2015,07,15,13,23,22.00
2015,07,15,13,24,22.10
2015,07,15,13,25,22.10
2015,07,15,13,26,22.20
2015,07,15,13,27,22.20
2015,07,15,13,28,22.10
2015,07,15,13,29,22.10
2015,07,15,13,30,22.10
2015,07,15,13,31,22.20
2015,07,15,13,32,22.20
2015,07,15,13,33,22.20
2015,07,15,13,34,22.20
2015,07,15,13,35,22.20
2015,07,15,13,36,22.10
2015,07,15,13,37,22.00
2015,07,15,13,38,21.90
2015,07,15,13,39,21.80
2015,07,15,13,40,21.60
2015,07,15,13,41,21.50
2015,07,15,13,42,21.40
2015,07,15,13,43,21.40
2015,07,15,13,44,21.40
2015,07,15,13,45,21.40
2015,07,15,13,46,21.40
2015,07,15,13,47,21.40
2015,07,15,13,48,21.40
2015,07,15,13,49,21.40
2015,07,15,13,50,21.40
2015,07,15,13,51,21.40
2015,07,15,13,52,21.50
2015,07,15,13,53,21.60
2015,07,15,13,54,21.70
2015,07,15,13,55,21.70
2015,07,15,13,56,21.80
2015,07,15,13,57,21.90
2015,07,15,13,58,22.00
2015,07,15,13,59,22.10
2015,07,15,14,00,22.20
2015,07,15,14,01,22.20
2015,07,15,14,02,22.20
2015,07,15,14,03,22.10
2015,07,15,14,04,22.00
2015,07,15,14,05,21.90
2015,07,15,14,06,21.90
2015,07,15,14,07,21.90
2015,07,15,14,08,21.90
2015,07,15,14,09,21.90
2015,07,15,14,10,21.90
2015,07,15,14,11,22.00
2015,07,15,14,12,22.00
2015,07,15,14,13,22.00
2015,07,15,14,14,21.90
2015,07,15,14,15,21.80
2015,07,15,14,16,21.80
2015,07,15,14,17,21.90
2015,07,15,14,18,21.80
2015,07,15,14,19,21.80
2015,07,15,14,20,21.80
2015,07,15,14,21,21.80
2015,07,15,14,22,21.80
2015,07,15,14,23,21.80
2015,07,15,14,24,21.80
2015,07,15,14,25,21.80
2015,07,15,14,26,21.80
2015,07,15,14,27,21.80
2015,07,15,14,28,21.80
2015,07,15,14,29,21.80
2015,07,15,14,30,21.80
2015,07,15,14,31,21.80
2015,07,15,14,32,21.80
2015,07,15,14,33,21.80
2015,07,15,14,34,21.80
2015,07,15,14,35,21.80
2015,07,15,14,36,21.70
2015,07,15,14,37,21.80
2015,07,15,14,38,21.80
2015,07,15,14,39,21.90
2015,07,15,14,40,21.90
2015,07,15,14,41,22.00
2015,07,15,14,42,22.10
2015,07,15,14,43,22.10
2015,07,15,14,44,22.20
2015,07,15,14,45,22.20
2015,07,15,14,46,22.20
2015,07,15,14,47,22.30
2015,07,15,14,48,22.30
2015,07,15,14,49,22.30
2015,07,15,14,50,22.40
2015,07,15,14,51,22.30
2015,07,15,14,52,22.30
2015,07,15,14,53,22.30
2015,07,15,14,54,22.40
2015,07,15,14,55,22.50
2015,07,15,14,56,22.50
2015,07,15,14,57,22.40
2015,07,15,14,58,22.30
2015,07,15,14,59,22.30
2015,07,15,15,00,22.30
2015,07,15,15,01,22.20
2015,07,15,15,02,22.10
2015,07,15,15,03,22.00
2015,07,15,15,04,21.90
2015,07,15,15,05,21.80
2015,07,15,15,06,21.80
2015,07,15,15,07,21.80
2015,07,15,15,08,21.80
2015,07,15,15,09,21.80
2015,07,15,15,10,21.80
2015,07,15,15,11,21.70
2015,07,15,15,12,21.70
2015,07,15,15,13,21.80
2015,07,15,15,14,21.80
2015,07,15,15,15,21.90
2015,07,15,15,16,21.90
2015,07,15,15,17,22.00
2015,07,15,15,18,22.10
2015,07,15,15,19,22.10
2015,07,15,15,20,22.10
2015,07,15,15,21,22.10
2015,07,15,15,22,22.20
2015,07,15,15,23,22.20
2015,07,15,15,24,22.20
2015,07,15,15,25,22.20
2015,07,15,15,26,22.20
2015,07,15,15,27,22.30
2015,07,15,15,28,22.20
2015,07,15,15,29,22.20
2015,07,15,15,30,22.10
2015,07,15,15,31,22.10
2015,07,15,15,32,22.20
2015,07,15,15,33,22.20
2015,07,15,15,34,22.10
2015,07,15,15,35,22.10
2015,07,15,15,36,22.10
2015,07,15,15,37,22.10
2015,07,15,15,38,22.10
2015,07,15,15,39,22.10
2015,07,15,15,40,22.10
2015,07,15,15,41,22.00
2015,07,15,15,42,21.80
2015,07,15,15,43,21.80
2015,07,15,15,44,21.80
2015,07,15,15,45,21.80
2015,07,15,15,46,21.80
2015,07,15,15,47,21.80
2015,07,15,15,48,21.80
2015,07,15,15,49,21.80
2015,07,15,15,50,21.80
2015,07,15,15,51,21.90
2015,07,15,15,52,21.90
2015,07,15,15,53,21.90
2015,07,15,15,54,21.90
2015,07,15,15,55,21.90
2015,07,15,15,56,21.90
2015,07,15,15,57,21.90
2015,07,15,15,58,21.90
2015,07,15,15,59,21.90
2015,07,15,16,00,21.80
2015,07,15,16,01,21.70
2015,07,15,16,02,21.70
2015,07,15,16,03,21.70
2015,07,15,16,04,21.60
2015,07,15,16,05,21.60
2015,07,15,16,06,21.60
2015,07,15,16,07,21.60
2015,07,15,16,08,21.60
2015,07,15,16,09,21.60
2015,07,15,16,10,21.60
2015,07,15,16,11,21.50
2015,07,15,16,12,21.50
2015,07,15,16,13,21.50
2015,07,15,16,14,21.50
2015,07,15,16,15,21.50
2015,07,15,16,16,21.60
2015,07,15,16,17,21.60
2015,07,15,16,18,21.60
2015,07,15,16,19,21.60
2015,07,15,16,20,21.60
2015,07,15,16,21,21.60
2015,07,15,16,22,21.50
2015,07,15,16,23,21.50
2015,07,15,16,24,21.50
2015,07,15,16,25,21.50
2015,07,15,16,26,21.40
2015,07,15,16,27,21.40
2015,07,15,16,28,21.40
2015,07,15,16,29,21.40
2015,07,15,16,30,21.40
2015,07,15,16,31,21.50
2015,07,15,16,32,21.60
2015,07,15,16,33,21.60
2015,07,15,16,34,21.50
2015,07,15,16,35,21.50
2015,07,15,16,36,21.50
2015,07,15,16,37,21.50
2015,07,15,16,38,21.50
2015,07,15,16,39,21.50
2015,07,15,16,40,21.50
2015,07,15,16,41,21.50
2015,07,15,16,42,21.50
2015,07,15,16,43,21.50
2015,07,15,16,44,21.50
2015,07,15,16,45,21.60
2015,07,15,16,46,21.70
2015,07,15,16,47,21.70
2015,07,15,16,48,21.70
2015,07,15,16,49,21.80
2015,07,15,16,50,21.80
2015,07,15,16,51,21.80
2015,07,15,16,52,21.80
2015,07,15,16,53,21.80
2015,07,15,16,54,21.80
2015,07,15,16,55,21.80
2015,07,15,16,56,21.80
2015,07,15,16,57,21.80
2015,07,15,16,58,21.80
2015,07,15,16,59,21.80
2015,07,15,17,00,21.70
2015,07,15,17,01,21.70
2015,07,15,17,02,21.80
2015,07,15,17,03,21.70
2015,07,15,17,04,21.70
2015,07,15,17,05,21.70
2015,07,15,17,06,21.60
2015,07,15,17,07,21.60
2015,07,15,17,08,21.60
2015,07,15,17,09,21.50
2015,07,15,17,10,21.50
2015,07,15,17,11,21.50
2015,07,15,17,12,21.50
2015,07,15,17,13,21.50
2015,07,15,17,14,21.50
2015,07,15,17,15,21.50
2015,07,15,17,16,21.50
2015,07,15,17,17,21.50
2015,07,15,17,18,21.60
2015,07,15,17,19,21.60